Location: Hiram
(41.3130°N, 81.1440°W)
Time: 04:40:09
(UTC-04:00)

Daily predictions for brighter satellites

Satellite Brightness Start Highest point End
(mag) Time Altitude Azimuth Time Altitude Azimuth Time Altitude Azimuth
Cosmos 2237 Rocket 3.0 00:00:04 10° NW 00:05:22 41° WSW 00:07:04 33° SW
Cosmos 1703 Rocket 3.5 00:05:29 10° NNW 00:09:50 73° W 00:10:13 68° SW
Cosmos 2251 Rocket 4.4 00:06:10 10° N 00:11:08 38° ENE 00:12:29 33° E
Cosmos 1892 4.4 00:17:14 23° ENE 00:17:14 23° ENE 00:19:26 10° NNE
BREEZE-M DEB (TANK) 4.2 00:05:50 10° WNW 00:16:30 47° N 00:19:08 18° ENE
Cosmos 1626 4.4 00:16:07 15° WSW 00:17:35 19° WNW 00:20:19 10° NNW
Cosmos 1269 Rocket 4.3 00:14:19 10° NNW 00:19:30 56° WSW 00:20:28 49° SW
H-2A R/B 3.6 00:17:35 22° SW 00:19:36 27° W 00:24:12 10° NW
Cosmos 2074 Rocket 4.0 00:19:31 49° SSE 00:21:04 66° E 00:27:19 10° NNE
Cosmos 44 4.4 00:22:02 34° E 00:22:02 34° E 00:26:14 10° NE
Cosmos 2221 Rocket 4.0 00:19:43 10° NNW 00:24:11 54° W 00:24:36 52° WSW
Meteor 2-3 Rocket 3.7 00:25:13 57° SSE 00:26:16 70° E 00:31:57 10° NNE
SeaSat 1 2.5 00:26:25 59° ESE 00:27:12 70° ENE 00:32:07 10° NNW
In-Cosmos 22 Rocket 4.1 00:26:40 59° S 00:27:48 80° E 00:33:35 10° NNE
Cosmos 2327 Rocket 4.5 00:28:39 52° SSE 00:30:18 77° E 00:36:44 10° N
NOSS 2-3 (C) 4.0 00:29:03 51° SW 00:30:19 81° NW 00:36:02 10° NNE
Lacrosse 4 Rocket 2.1 00:30:53 10° NW 00:34:52 47° W 00:34:52 47° W
Cosmos 389 Rocket 3.5 00:32:36 10° NNW 00:35:18 44° NW 00:35:18 44° NW
CZ-4B R/B 2.9 00:37:08 32° NE 00:37:08 32° NE 00:39:29 10° N
ASTEX 1 3.6 00:32:33 10° NNE 00:37:20 52° E 00:37:24 52° E
GEOS 3 Rocket 4.0 00:38:26 42° ESE 00:39:57 58° NE 00:45:02 10° NNW
Cosmos 2227 Rocket 4.3 00:40:00 10° WSW 00:44:22 22° NW 00:48:45 10° N
Cosmos 2263 Rocket 3.8 00:46:18 20° E 00:46:18 20° E 00:50:00 10° NE
Cosmos 1932 4.4 00:42:31 10° NNW 00:48:58 89° WSW 00:50:31 55° SSE
NOSS 3-4 (A) 4.4 00:50:43 33° ESE 00:50:43 33° ESE 00:56:17 10° NE
NOSS 3-4 (C) 4.4 00:50:49 32° ESE 00:50:49 32° ESE 00:56:21 10° NE
NOSS 2-3 (D) 4.5 00:49:46 37° WSW 00:51:36 58° NW 00:57:14 10° NNE
Meteor 2-10 Rocket 3.7 00:46:04 10° N 00:51:43 77° E 00:52:36 63° SE
Cosmos 2154 Rocket 4.2 00:50:46 48° SE 00:51:57 55° E 00:58:04 10° NNE
Cosmos 158 Rocket 4.0 00:50:44 10° NNW 00:55:57 64° WSW 00:56:13 63° WSW
COSMOS 2455 3.7 00:51:11 10° NW 00:56:33 35° WSW 00:57:11 34° WSW
CZ-4C R/B 3.3 00:50:37 10° NNW 00:57:32 57° NE 01:01:44 27° ESE
SL-16 R/B 3.2 00:54:31 10° NW 00:59:32 33° WSW 01:00:04 32° WSW
Cosmos 2333 Rocket 4.5 00:58:12 10° WNW 01:00:04 12° W 01:01:24 11° WSW
Landsat 5 3.7 01:01:26 75° ENE 01:01:26 75° ENE 01:05:51 10° N
Cosmos 2184 Rocket 4.2 01:01:53 45° SW 01:03:36 62° W 01:09:43 10° N
Cosmos 2227 4.2 01:02:28 56° SW 01:03:38 75° WNW 01:09:20 10° NNE
Cosmos 44 Rocket 4.3 01:02:34 31° WSW 01:04:33 47° NW 01:09:38 10° NNE
Cosmos 1782 3.4 01:00:49 10° N 01:04:04 52° NNE 01:04:04 52° NNE
CZ-2C R/B 3.2 01:03:51 10° NNE 01:08:45 41° E 01:08:48 41° E
H-2A R/B 2.7 01:05:07 10° N 01:09:09 68° NW 01:09:09 68° NW
Cosmos 1340 Rocket 3.4 01:10:33 52° NNW 01:10:33 52° NNW 01:13:47 10° N
Cosmos 2297 Rocket 4.4 01:07:16 10° W 01:11:19 20° NW 01:15:24 10° N
Cosmos 1733 Rocket 3.3 01:14:20 66° WNW 01:14:20 66° WNW 01:18:34 10° N
Sich 1 Rocket 3.7 01:19:01 73° NE 01:19:01 73° NE 01:23:12 10° N
Cosmos 1943 3.5 01:16:14 10° NNW 01:21:53 62° ENE 01:23:07 49° ESE
Helios 1A Rocket 3.2 01:18:12 10° NNE 01:21:50 66° NNE 01:21:50 66° NNE
BREEZE-M TANK 3.5 01:17:29 10° W 01:25:14 52° N 01:27:42 14° ENE
Cosmos 1378 Rocket 3.9 01:22:16 10° N 01:26:17 57° ENE 01:26:17 57° ENE
Cosmos 2341 Rocket 4.0 01:25:29 59° S 01:26:47 82° E 01:33:11 10° N
Cosmos 962 Rocket 4.3 01:28:25 63° S 01:29:30 85° E 01:35:38 10° N
ALOS 2 3.6 01:30:07 36° W 01:30:07 36° W 01:33:41 10° NNW
Coronas F rocket 4.5 01:33:07 15° NNW 01:33:07 15° NNW 01:33:45 10° NNW
Meteor 1-27 Rocket 3.7 01:25:32 10° N 01:31:24 79° E 01:32:16 64° SSE
ATLAS 3B R/B 3.9 01:27:02 10° WNW 01:32:11 23° WSW 01:32:30 23° WSW
RESURS DK-1 4.1 01:33:53 24° ENE 01:33:53 24° ENE 01:36:14 10° NE
Cosmos 1603 4.1 01:28:20 10° NW 01:33:43 45° WSW 01:33:53 45° WSW
Cosmos 1606 3.4 01:31:53 10° N 01:34:52 52° N 01:34:52 52° N
SL-8 Rocket 4.2 01:35:25 49° SE 01:36:42 58° E 01:42:54 10° NNE
Meteor 2-6 Rocket 4.4 01:37:46 10° NNW 01:43:31 59° W 01:44:18 54° SW
USA 238 DEB 4.1 01:38:32 10° NW 01:45:05 43° WSW 01:45:45 42° SW
USA 238 4.1 01:38:38 10° NW 01:45:11 44° WSW 01:45:52 42° SW
Geosat 3.9 01:41:37 10° NNE 01:46:40 77° WNW 01:47:11 69° WSW
Cosmos 2218 Rocket 4.2 01:47:11 49° SE 01:48:33 59° E 01:54:46 10° NNE
Cosmos 1862 3.8 01:50:08 58° N 01:50:08 58° N 01:53:28 10° N
Cosmos 1782 Rocket 3.6 01:53:08 74° NNE 01:53:08 74° NNE 01:57:10 10° N
PSLV R/B 4.4 01:53:12 55° NE 01:53:12 55° NE 01:56:56 10° N
Cosmos 1408 3.4 01:55:31 50° N 01:55:31 50° N 01:58:24 10° N
Okean 2 Rocket 3.2 01:55:06 71° ENE 01:55:06 71° ENE 01:59:23 10° NNE
Cosmos 2366 rocket 4.1 01:59:26 51° SE 02:00:47 64° E 02:06:55 10° NNE
Cosmos 921 Rocket 4.3 02:02:02 30° WNW 02:02:07 30° WNW 02:05:52 10° N
USA 234 4.4 01:59:17 10° E 02:05:19 42° NNE 02:11:22 10° NW
CENTAUR R/B 4.3 01:59:21 10° NNW 02:06:26 38° NE 02:13:57 10° ESE
Cosmos 1238 Rocket 4.3 02:05:33 10° NNW 02:07:47 25° NW 02:07:47 25° NW
Cosmos 1184 Rocket 4.3 02:12:00 37° NNE 02:12:00 37° NNE 02:14:12 10° NNE
Cosmos 1624 Rocket 4.1 02:11:16 57° SE 02:11:42 59° ESE 02:16:52 10° NNE
Cosmos 1825 3.2 02:13:16 41° NW 02:13:16 41° NW 02:16:14 10° N
CZ-2C R/B 3.2 02:12:41 61° SSW 02:13:34 73° WSW 02:19:11 10° NNW
Cosmos 1975 Rocket 3.3 02:10:44 10° NNW 02:14:38 57° WNW 02:14:38 57° WNW
Cosmos 1867 3.4 02:10:39 10° NW 02:16:08 79° WSW 02:16:46 68° S
NOSS 3-2 (C) 3.9 02:11:29 10° NW 02:19:01 73° WSW 02:22:15 40° SSE
Cosmos 864 Rocket 4.4 02:20:19 55° S 02:21:48 88° E 02:27:59 10° N
Cosmos 1812 4.4 02:20:41 10° NNE 02:24:00 26° ENE 02:24:38 25° E
Cosmos 1727 Rocket 3.9 02:17:44 10° N 02:24:00 84° E 02:25:47 50° SSE
Cosmos 1844 Rocket 3.9 02:24:56 27° SE 02:26:09 30° ESE 02:31:00 10° NE
Cosmos 1536 Rocket 3.9 02:22:42 10° N 02:27:01 55° E 02:27:28 52° ESE
Cosmos 2263 Rocket 2.5 02:27:59 45° WSW 02:29:24 57° WNW 02:35:01 10° NNE
Cosmos 1452 Rocket 4.4 02:32:25 32° SE 02:33:28 36° ESE 02:38:14 10° NE
Cosmos 1242 Rocket 3.2 02:30:01 10° N 02:32:42 50° N 02:32:42 50° N
CRYOSAT 2 4.3 02:31:44 10° N 02:36:36 73° E 02:37:19 61° SSE
NOSS 3-2 (A) 4.3 02:34:01 10° NW 02:41:11 46° WSW 02:43:00 40° SSW
NOSS 3-4 (A) 4.2 02:38:08 28° WSW 02:41:15 48° NW 02:47:38 10° NNE
NOSS 3-4 (C) 4.2 02:38:14 28° WSW 02:41:20 49° NW 02:47:44 10° NNE
CZ-4C R/B 3.5 02:39:32 10° NW 02:46:00 35° WSW 02:46:52 34° SW
ATLAS 5 CENTAUR R/B 4.4 02:41:14 10° NNW 02:46:07 26° NE 02:51:16 10° E
CZ-2C R/B 4.0 02:44:37 10° NNW 02:48:48 25° WNW 02:50:19 22° W
PSLV R/B 3.3 02:46:41 10° NNE 02:50:55 86° W 02:51:09 79° SW
Cosmos 2278 Rocket 3.8 02:50:51 19° SE 02:53:05 24° ESE 02:57:33 10° NE
Cosmos 2151 Rocket 3.7 02:53:54 57° W 02:54:11 58° W 02:58:36 10° N
Okean 1 3.8 02:50:26 10° N 02:54:21 53° E 02:55:00 47° ESE
COSMOS 2406 3.2 02:50:14 10° NNW 02:56:03 89° ENE 02:58:32 36° SSE
Cosmos 1190 Rocket 3.9 02:53:55 10° NNW 02:59:08 71° WSW 03:00:14 53° SSW
Okean 1 Rocket 3.5 02:58:17 45° SE 02:59:12 54° E 03:03:34 10° NNE
Okean 1-7 Rocket 4.2 02:56:55 10° N 03:01:25 53° E 03:03:04 34° SE
NOSS 2-2 (C) 4.5 03:02:49 33° SE 03:03:14 34° ESE 03:07:22 10° NE
BREEZE-M DEB (TANK) 4.4 02:51:15 10° W 03:03:41 46° NNW 03:07:28 10° NE
Meteor 1-25 Rocket 4.2 03:04:44 46° SSW 03:06:32 78° W 03:12:22 10° N
Cosmos 2056 Rocket 4.1 03:08:09 36° WSW 03:09:39 46° WNW 03:14:41 10° N
RESURS DK-1 3.9 03:09:47 23° WNW 03:10:41 25° NW 03:14:11 10° N
Cosmos 407 Rocket 3.4 03:07:43 10° NNW 03:12:51 67° WSW 03:14:15 46° SSW
Landsat 4 3.8 03:15:01 58° W 03:15:01 58° W 03:18:39 10° NNW
Cosmos 1025 Rocket 4.3 03:13:28 10° N 03:17:26 36° ENE 03:20:14 17° SE
Abrixas rocket 4.0 03:17:35 22° WNW 03:18:58 31° NNW 03:22:00 10° NE
Cosmos 676 Rocket 3.9 03:18:05 10° NNW 03:23:16 72° WSW 03:25:17 37° S
SL-08 R/B 3.3 03:23:18 38° S 03:25:15 82° WSW 03:30:10 10° NNW
GP-B 3.0 03:21:15 10° N 03:25:42 84° W 03:26:58 47° S
Cosmos 1821 Rocket 4.0 03:23:32 33° S 03:26:42 90° E 03:33:08 10° N
SL-16 R/B 3.7 03:22:06 10° SE 03:27:51 41° ENE 03:33:36 10° N
NOSS 2-2 (E) 3.6 03:27:12 48° S 03:28:15 68° ESE 03:33:04 10° NE
SL-27 R/B 3.2 03:26:10 10° NNW 03:29:14 41° W 03:29:14 41° W
NPP 3.6 03:24:32 10° N 03:29:56 76° WNW 03:32:08 37° SSW
Cosmos 2123 Rocket 4.3 03:24:02 10° N 03:30:21 68° E 03:35:24 17° SSE
Cosmos 1809 Rocket 4.4 03:29:58 33° SSW 03:32:53 81° W 03:39:04 10° N
AQUA 3.8 03:34:38 10° N 03:39:23 71° WNW 03:41:12 37° SSW
Meteor 2-21 4.5 03:41:19 31° SSW 03:44:18 66° W 03:50:23 10° N
ERS-2 2.3 03:40:47 10° N 03:44:27 58° WNW 03:45:16 45° SW
IRS-1D 4.3 03:40:26 10° NNE 03:45:18 45° E 03:48:40 18° SSE
Meteor 2-16 Rocket 4.4 03:42:10 26° S 03:45:51 86° E 03:52:03 10° N
CZ-2D R/B 3.3 03:40:48 10° NNE 03:45:55 39° E 03:50:19 13° SSE
Cosmos 1544 Rocket 4.3 03:45:24 21° SSE 03:48:03 49° E 03:52:17 10° NNE
USA 234 3.2 03:41:35 10° SE 03:48:04 69° SW 03:54:37 10° NW
Cosmos 1954 Rocket 4.1 03:43:54 10° NNW 03:48:57 54° WSW 03:51:24 29° SSW
Cosmos 614 Rocket 4.4 03:44:23 10° NNW 03:49:32 63° ENE 03:54:35 10° SSE
Cosmos 1300 Rocket 4.5 03:50:51 28° WSW 03:51:59 33° WNW 03:55:58 10° N
CBERS 1 LM4 rocket 4.3 03:47:29 10° N 03:52:22 73° WNW 03:54:39 31° SSW
Cosmos 1536 2.8 03:50:58 33° S 03:52:42 82° E 03:56:47 10° N
SAR-Lupe-3 4.4 03:53:06 37° S 03:54:24 77° WSW 03:57:58 10° NNW
CENTAUR R/B 3.1 03:49:52 10° NW 03:57:38 63° WSW 04:05:47 10° SSE
Cosmos 1812 4.3 03:56:51 10° NW 03:59:42 20° W 03:59:48 20° W
Meteor 1-19 Rocket 4.2 03:55:34 10° NNW 04:01:23 75° W 04:06:06 16° S
USA 161 1.4 04:01:36 52° SSW 04:02:08 70° W 04:05:05 10° NNW
Gbstr 26 Del rocket 3.4 04:00:16 22° W 04:02:30 47° NNW 04:06:08 10° NE
IRS-1C 4.4 03:58:33 10° N 04:03:45 55° WNW 04:06:44 25° SW
Cosmos 1844 Rocket 3.5 04:06:36 21° WSW 04:09:52 40° WNW 04:15:11 10° N
EO 1 Del DPAF 3.4 04:06:52 12° SSE 04:10:26 73° ENE 04:14:19 10° N
Cosmos 1892 Rocket 3.4 04:07:24 10° N 04:11:46 84° W 04:15:11 16° S
ARIANE 5 R/B 2.4 04:09:33 10° NNE 04:14:34 85° WNW 04:18:08 20° SSW
Meteor 1-11 Rocket 4.3 04:15:58 21° SW 04:19:39 48° WNW 04:25:25 10° N
Cosmos 1461 3.5 04:19:20 22° SW 04:22:12 54° NW 04:26:43 10° NNE
Cosmos 1356 3.6 04:20:41 27° SSW 04:22:25 58° WNW 04:25:56 10° N
Cosmos 2100 Rocket 4.4 04:16:47 10° S 04:22:56 64° E 04:29:12 10° NNE
Resurs 1-4 Rocket 2.1 04:18:08 10° NNE 04:23:29 86° ESE 04:27:59 15° SSW
Cosmos 1844 4.4 04:20:36 19° WSW 04:24:18 41° WNW 04:29:46 10° N
CZ-2D R/B 4.3 04:22:18 10° NNE 04:26:10 44° E 04:30:04 10° S
ATLAS 5 CENTAUR R/B 2.4 04:25:22 10° NW 04:31:21 72° WSW 04:37:45 10° SSE
BREEZE-M DEB (TANK) 4.0 04:28:55 17° SSW 04:32:00 36° SE 04:35:14 10° ENE
Cosmos 1400 Rocket 3.2 04:30:49 21° SW 04:33:04 45° WNW 04:36:53 10° N
ADEOS 4.5 04:29:44 10° N 04:34:25 34° WNW 04:37:58 16° SW
Cosmos 1633 3.6 04:34:35 20° WSW 04:36:20 30° WNW 04:39:34 10° NNW
Cosmos 1140 Rocket 4.3 04:32:20 10° NW 04:36:45 30° W 04:40:11 15° SSW
Cosmos 2278 Rocket 2.7 04:32:42 17° SW 04:36:49 48° WNW 04:42:19 10° NNE
Meteor 1-23 Rocket 4.4 04:31:26 10° NNW 04:36:58 53° W 04:42:24 10° S
Cosmos 1331 Rocket 4.3 04:32:48 11° S 04:37:44 66° ESE 04:42:54 10° NNE
COSMOS 2487 3.8 04:35:00 10° NW 04:37:54 23° W 04:39:08 19° SW
Cosmos 2297 3.7 04:33:17 15° SSW 04:37:59 89° WNW 04:43:44 10° NNE
UNK 3.9 04:35:25 10° S 04:39:55 54° W 04:44:30 10° NNW
Cosmos 1602 Rocket 3.8 04:37:46 10° N 04:42:07 73° E 04:46:27 10° SSE
Timation 2 Rocket 4.0 04:42:48 10° NW 04:48:45 53° WSW 04:54:30 10° S
Meteor 1-5 Rocket 4.4 04:44:52 12° SSW 04:50:20 61° WNW 04:56:01 10° N
Okean O Rocket 1.8 04:48:53 10° NNE 04:53:14 70° ESE 04:57:32 10° S
CZ-4B R/B 3.8 04:49:39 10° NNE 04:55:16 60° ESE 05:00:50 10° S
Cosmos 2082 Rocket 2.2 04:49:46 10° NNW 04:55:30 81° WSW 05:01:12 10° SSE
Cosmos 2061 Rocket 4.1 04:50:07 10° S 04:56:26 78° W 05:02:53 10° N
Cosmos 1626 Rocket 3.5 04:55:10 10° NNW 04:59:32 72° W 05:03:55 10° S
Cosmos 1455 Rocket 3.8 04:56:19 12° SW 05:00:01 36° WNW 05:04:09 10° N
Cosmos 1315 Rocket 3.6 04:58:52 12° SW 05:02:16 36° WNW 05:06:01 10° N
USA 129 1.6 05:00:31 10° S 05:02:35 56° WSW 05:04:35 10° NNW
MOZ.5/SAFIR/RUBIN 5/SL-8 4.1 04:59:10 10° SSE 05:03:56 77° ENE 05:08:43 10° N
Cosmos 1346 Rocket 2.9 05:04:57 10° N 05:09:01 86° E 05:13:01 10° S
DNEPR-1 R/B 4.2 05:03:39 10° NNW 05:09:20 74° NE 05:13:58 10° SE
Cosmos 1743 4.2 05:07:45 10° SSE 05:11:17 37° E 05:14:50 10° NNE
SL-16 R/B 3.3 05:06:01 10° SSW 05:11:31 32° W 05:17:02 10° NNW
BREEZE-M DEB (TANK) 3.7 05:03:57 10° WNW 05:12:09 50° NNE 05:15:01 10° E
CZ-4B R/B 3.4 05:09:34 10° NNE 05:14:08 75° ESE 05:18:33 10° S
Cosmos 1515 3.7 05:10:21 10° N 05:14:10 90° NNE 05:18:00 10° S
Cosmos 1500 3.4 05:11:17 10° S 05:15:09 80° E 05:19:04 10° N
Meteor 1-12 Rocket 4.4 05:10:01 10° SSW 05:15:48 62° WNW 05:21:32 10° N
Cosmos 1302 Rocket 4.1 05:11:10 10° SSW 05:16:23 86° ESE 05:21:39 10° NNE
Cosmos 1975 3.2 05:16:00 10° SSW 05:19:52 48° W 05:23:45 10° N
SME Rocket 4.4 05:17:23 10° SW 05:20:11 20° W 05:23:12 10° NW
Cosmos 2016 Rocket 4.1 05:15:36 10° SSW 05:21:52 67° W 05:28:06 10° N
Cosmos 1066 Rocket 4.2 05:18:21 10° N 05:23:52 86° ENE 05:29:15 10° S
UNKNOWN OBJECT B 4.2 05:21:42 10° NNW 05:25:07 26° WNW 05:28:32 10° SW
CZ-2D R/B 3.3 05:21:12 10° N 05:25:48 29° WNW 05:30:25 10° WSW
